owner,sensor,date,latitude,longitude,vertical_datum,sea_water_practical_salinity,qcFlag 
SCCF RECON,ioos:station:SCCF:11:1,2017-10-01T04:00:00Z,26.4679,-82.0631,2.17,22.68,1111122 
SCCF RECON,ioos:station:SCCF:11:1,2017-10-01T05:00:00Z,26.4679,-82.0631,2.15,23.84,1111122 
SCCF RECON,ioos:station:SCCF:11:1,2017-10-01T12:00:00Z,26.4679,-82.0631,2.111,20.2,1111122 
SCCF RECON,ioos:station:SCCF:11:1,2017-10-01T13:00:00Z,26.4679,-82.0631,2.19,22.62,1111122 
SCCF RECON,ioos:station:SCCF:11:1,2017-10-01T14:00:00Z,26.4679,-82.0631,2.22,23.45,1111122 
SCCF RECON,ioos:station:SCCF:11:1,2017-10-01T15:00:00Z,26.4679,-82.0631,2.21,23.9,1111122 
SCCF RECON,ioos:station:SCCF:11:1,2017-10-01T16:00:00Z,26.4679,-82.0631,2.17,24.29,1111122 
SCCF RECON,ioos:station:SCCF:11:1,2017-10-01T17:00:00Z,26.4679,-82.0631,2.11,24.06,1111122 
SCCF RECON,ioos:station:SCCF:11:1,2017-10-01T18:00:00Z,26.4679,-82.0631,1.985,20.21,1111122 
SCCF RECON,ioos:station:SCCF:11:1,2017-10-01T19:00:00Z,26.4679,-82.0631,1.84,19.42,1111122 
SCCF RECON,ioos:station:SCCF:11:1,2017-10-01T20:00:00Z,26.4679,-82.0631,1.74,19.64,1111122 
SCCF RECON,ioos:station:SCCF:11:1,2017-10-01T21:00:00Z,26.4679,-82.0631,1.68,19.4,1111122 
SCCF RECON,ioos:station:SCCF:11:1,2017-10-01T22:00:00Z,26.4679,-82.0631,1.69,20.2,1111122 
SCCF RECON,ioos:station:SCCF:11:1,2017-10-02T04:00:00Z,26.4679,-82.0631,2.21,21.65,1111122 
SCCF RECON,ioos:station:SCCF:11:1,2017-10-02T08:00:00Z,26.4679,-82.0631,1.95,18.85,1111122 
SCCF RECON,ioos:station:SCCF:11:1,2017-10-02T12:00:00Z,26.4679,-82.0631,2.14,18.74,1111122 
SCCF RECON,ioos:station:SCCF:11:1,2017-10-02T13:00:00Z,26.4679,-82.0631,2.23,18.31,1111122 
SCCF RECON,ioos:station:SCCF:11:1,2017-10-02T14:00:00Z,26.4679,-82.0631,2.28,22.61,1111122 
SCCF RECON,ioos:station:SCCF:11:1,2017-10-02T15:00:00Z,26.4679,-82.0631,2.32,22.37,1111122 
SCCF RECON,ioos:station:SCCF:11:1,2017-10-02T16:00:00Z,26.4679,-82.0631,2.32,22.85,1111122 
SCCF RECON,ioos:station:SCCF:11:1,2017-10-02T17:00:00Z,26.4679,-82.0631,2.31,23.49,1111122 
SCCF RECON,ioos:station:SCCF:11:1,2017-10-02T18:00:00Z,26.4679,-82.0631,2.21,22.61,1111122 
SCCF RECON,ioos:station:SCCF:11:1,2017-10-02T19:00:00Z,26.4679,-82.0631,2.058,19.31,1111122 
SCCF RECON,ioos:station:SCCF:11:1,2017-10-02T20:00:00Z,26.4679,-82.0631,1.932,19.17,1111122 
SCCF RECON,ioos:station:SCCF:11:1,2017-10-02T21:00:00Z,26.4679,-82.0631,1.834,19.69,1111122 
SCCF RECON,ioos:station:SCCF:11:1,2017-10-02T22:00:00Z,26.4679,-82.0631,1.727,19.09,1111122 
SCCF RECON,ioos:station:SCCF:11:1,2017-10-03T04:00:00Z,26.4679,-82.0631,2.225,16.6,1111122 
SCCF RECON,ioos:station:SCCF:11:1,2017-10-03T05:00:00Z,26.4679,-82.0631,2.18,17.37,1111122 
SCCF RECON,ioos:station:SCCF:11:1,2017-10-03T06:00:00Z,26.4679,-82.0631,2.095,17.76,1111122 
SCCF RECON,ioos:station:SCCF:11:1,2017-10-03T07:00:00Z,26.4679,-82.0631,1.969,18.29,1111122 
SCCF RECON,ioos:station:SCCF:11:1,2017-10-03T08:00:00Z,26.4679,-82.0631,1.888,18.66,1111122 
SCCF RECON,ioos:station:SCCF:11:1,2017-10-03T09:00:00Z,26.4679,-82.0631,1.816,18.87,1111122 
SCCF RECON,ioos:station:SCCF:11:1,2017-10-03T12:00:00Z,26.4679,-82.0631,1.949,18.24,1111122 
SCCF RECON,ioos:station:SCCF:11:1,2017-10-03T13:00:00Z,26.4679,-82.0631,2.076,17.71,1111122 
SCCF RECON,ioos:station:SCCF:11:1,2017-10-03T14:00:00Z,26.4679,-82.0631,2.179,16.38,1111122 
SCCF RECON,ioos:station:SCCF:11:1,2017-10-03T15:00:00Z,26.4679,-82.0631,2.236,15.62,1111122 
SCCF RECON,ioos:station:SCCF:11:1,2017-10-03T16:00:00Z,26.4679,-82.0631,2.261,15.78,1111122 
SCCF RECON,ioos:station:SCCF:11:1,2017-10-03T17:00:00Z,26.4679,-82.0631,2.22,15.12,1111122 
SCCF RECON,ioos:station:SCCF:11:1,2017-10-03T18:00:00Z,26.4679,-82.0631,2.153,16.25,1111122 
SCCF RECON,ioos:station:SCCF:11:1,2017-10-03T19:00:00Z,26.4679,-82.0631,2.04,17.53,1111122 
SCCF RECON,ioos:station:SCCF:11:1,2017-10-03T20:00:00Z,26.4679,-82.0631,1.874,17.75,1111122 
SCCF RECON,ioos:station:SCCF:11:1,2017-10-03T21:00:00Z,26.4679,-82.0631,1.746,18.11,1111122 
SCCF RECON,ioos:station:SCCF:11:1,2017-10-03T22:00:00Z,26.4679,-82.0631,1.64,18.46,1111122 
SCCF RECON,ioos:station:SCCF:11:1,2017-10-04T04:00:00Z,26.4679,-82.0631,2.101,13.78,1111122 
SCCF RECON,ioos:station:SCCF:11:1,2017-10-04T05:00:00Z,26.4679,-82.0631,2.119,14.34,1111122 
SCCF RECON,ioos:station:SCCF:11:1,2017-10-04T06:00:00Z,26.4679,-82.0631,2.088,14.53,1111122 
SCCF RECON,ioos:station:SCCF:11:1,2017-10-04T07:00:00Z,26.4679,-82.0631,1.975,15.7,1111122 
SCCF RECON,ioos:station:SCCF:11:1,2017-10-04T08:00:00Z,26.4679,-82.0631,1.832,15.86,1111122 
SCCF RECON,ioos:station:SCCF:11:1,2017-10-04T09:00:00Z,26.4679,-82.0631,1.71,16.71,1111122 
SCCF RECON,ioos:station:SCCF:11:1,2017-10-04T11:00:00Z,26.4679,-82.0631,1.62,17.53,1111122 
SCCF RECON,ioos:station:SCCF:11:1,2017-10-04T12:00:00Z,26.4679,-82.0631,1.7,17.35,1111122 
SCCF RECON,ioos:station:SCCF:11:1,2017-10-04T13:00:00Z,26.4679,-82.0631,1.876,15.41,1111122 
SCCF RECON,ioos:station:SCCF:11:1,2017-10-04T14:00:00Z,26.4679,-82.0631,2.017,12.17,1111122 
SCCF RECON,ioos:station:SCCF:11:1,2017-10-04T15:00:00Z,26.4679,-82.0631,2.12,12.85,1111122 
SCCF RECON,ioos:station:SCCF:11:1,2017-10-04T16:00:00Z,26.4679,-82.0631,2.198,12.67,1111122 
SCCF RECON,ioos:station:SCCF:11:1,2017-10-04T17:00:00Z,26.4679,-82.0631,2.207,13.57,1111122 
SCCF RECON,ioos:station:SCCF:11:1,2017-10-04T18:00:00Z,26.4679,-82.0631,2.174,15.37,1111122 
SCCF RECON,ioos:station:SCCF:11:1,2017-10-04T19:00:00Z,26.4679,-82.0631,2.098,15.63,1111122 
SCCF RECON,ioos:station:SCCF:11:1,2017-10-04T20:00:00Z,26.4679,-82.0631,1.96,14.8,1111122 
SCCF RECON,ioos:station:SCCF:11:1,2017-10-04T21:00:00Z,26.4679,-82.0631,1.877,15.4,1111122 
SCCF RECON,ioos:station:SCCF:11:1,2017-10-04T22:00:00Z,26.4679,-82.0631,1.783,16.23,1111122 
SCCF RECON,ioos:station:SCCF:11:1,2017-10-05T04:00:00Z,26.4679,-82.0631,2.18,11.11,1111122 
SCCF RECON,ioos:station:SCCF:11:1,2017-10-05T05:00:00Z,26.4679,-82.0631,2.251,13.08,1111122 
SCCF RECON,ioos:station:SCCF:11:1,2017-10-05T06:00:00Z,26.4679,-82.0631,2.23,13.18,1111122 
SCCF RECON,ioos:station:SCCF:11:1,2017-10-05T07:00:00Z,26.4679,-82.0631,2.142,13.05,1111122 
SCCF RECON,ioos:station:SCCF:11:1,2017-10-05T08:00:00Z,26.4679,-82.0631,2.009,13.55,1111122 
SCCF RECON,ioos:station:SCCF:11:1,2017-10-05T09:00:00Z,26.4679,-82.0631,1.876,14.23,1111122 
SCCF RECON,ioos:station:SCCF:11:1,2017-10-05T10:00:00Z,26.4679,-82.0631,1.783,15.0,1111122 
SCCF RECON,ioos:station:SCCF:11:1,2017-10-05T11:00:00Z,26.4679,-82.0631,1.704,14.63,1111122 
SCCF RECON,ioos:station:SCCF:11:1,2017-10-05T12:00:00Z,26.4679,-82.0631,1.659,13.67,1111122 
SCCF RECON,ioos:station:SCCF:11:1,2017-10-05T13:00:00Z,26.4679,-82.0631,1.761,14.81,1111122 
SCCF RECON,ioos:station:SCCF:11:1,2017-10-05T14:00:00Z,26.4679,-82.0631,1.953,12.65,1111122 
SCCF RECON,ioos:station:SCCF:11:1,2017-10-05T15:00:00Z,26.4679,-82.0631,2.106,13.12,1111122 
SCCF RECON,ioos:station:SCCF:11:1,2017-10-05T16:00:00Z,26.4679,-82.0631,2.184,13.31,1111122 
SCCF RECON,ioos:station:SCCF:11:1,2017-10-05T18:00:00Z,26.4679,-82.0631,2.24,14.4,1111122 
SCCF RECON,ioos:station:SCCF:11:1,2017-10-05T19:00:00Z,26.4679,-82.0631,2.22,16.49,1111122 
SCCF RECON,ioos:station:SCCF:11:1,2017-10-05T20:00:00Z,26.4679,-82.0631,2.16,18.78,1111122 
SCCF RECON,ioos:station:SCCF:11:1,2017-10-05T21:00:00Z,26.4679,-82.0631,2.029,14.38,1111122 
SCCF RECON,ioos:station:SCCF:11:1,2017-10-05T22:00:00Z,26.4679,-82.0631,1.891,14.13,1111122 
SCCF RECON,ioos:station:SCCF:11:1,2017-10-06T04:00:00Z,26.4679,-82.0631,2.33,19.66,1111122 
SCCF RECON,ioos:station:SCCF:11:1,2017-10-06T05:00:00Z,26.4679,-82.0631,2.4,21.92,1111122 
SCCF RECON,ioos:station:SCCF:11:1,2017-10-06T06:00:00Z,26.4679,-82.0631,2.46,25.33,1111122 
SCCF RECON,ioos:station:SCCF:11:1,2017-10-06T07:00:00Z,26.4679,-82.0631,2.46,26.34,1111122 
SCCF RECON,ioos:station:SCCF:11:1,2017-10-06T08:00:00Z,26.4679,-82.0631,2.37,28.2,1111122 
SCCF RECON,ioos:station:SCCF:11:1,2017-10-06T09:00:00Z,26.4679,-82.0631,2.212,18.74,1111122 
SCCF RECON,ioos:station:SCCF:11:1,2017-10-06T10:00:00Z,26.4679,-82.0631,2.048,17.18,1111122 
SCCF RECON,ioos:station:SCCF:11:1,2017-10-06T11:00:00Z,26.4679,-82.0631,1.937,17.09,1111122 
SCCF RECON,ioos:station:SCCF:11:1,2017-10-06T12:00:00Z,26.4679,-82.0631,1.86,18.03,1111122 
SCCF RECON,ioos:station:SCCF:11:1,2017-10-06T13:00:00Z,26.4679,-82.0631,1.86,19.27,1111122 
SCCF RECON,ioos:station:SCCF:11:1,2017-10-06T14:00:00Z,26.4679,-82.0631,2.03,21.42,1111122 
SCCF RECON,ioos:station:SCCF:11:1,2017-10-06T15:00:00Z,26.4679,-82.0631,2.233,20.83,1111122 
SCCF RECON,ioos:station:SCCF:11:1,2017-10-06T16:00:00Z,26.4679,-82.0631,2.365,23.06,1111122 
SCCF RECON,ioos:station:SCCF:11:1,2017-10-06T17:00:00Z,26.4679,-82.0631,2.428,25.17,1111122 
SCCF RECON,ioos:station:SCCF:11:1,2017-10-06T18:00:00Z,26.4679,-82.0631,2.479,25.84,1111122 
SCCF RECON,ioos:station:SCCF:11:1,2017-10-06T19:00:00Z,26.4679,-82.0631,2.48,27.15,1111122 
SCCF RECON,ioos:station:SCCF:11:1,2017-10-06T20:00:00Z,26.4679,-82.0631,2.396,29.05,1111122 
SCCF RECON,ioos:station:SCCF:11:1,2017-10-06T21:00:00Z,26.4679,-82.0631,2.26,24.99,1111122 
SCCF RECON,ioos:station:SCCF:11:1,2017-10-06T22:00:00Z,26.4679,-82.0631,2.16,25.08,1111122 
SCCF RECON,ioos:station:SCCF:11:1,2017-10-07T04:00:00Z,26.4679,-82.0631,2.373,25.09,1111122 
SCCF RECON,ioos:station:SCCF:11:1,2017-10-07T05:00:00Z,26.4679,-82.0631,2.45,25.68,1111122 
SCCF RECON,ioos:station:SCCF:11:1,2017-10-07T06:00:00Z,26.4679,-82.0631,2.5,26.0,1111122 
SCCF RECON,ioos:station:SCCF:11:1,2017-10-07T07:00:00Z,26.4679,-82.0631,2.5,27.77,1111122 
SCCF RECON,ioos:station:SCCF:11:1,2017-10-07T08:00:00Z,26.4679,-82.0631,2.42,28.7,1111122 
SCCF RECON,ioos:station:SCCF:11:1,2017-10-07T09:00:00Z,26.4679,-82.0631,2.247,22.62,1111122 
SCCF RECON,ioos:station:SCCF:11:1,2017-10-07T10:00:00Z,26.4679,-82.0631,2.085,20.22,1111122 
SCCF RECON,ioos:station:SCCF:11:1,2017-10-07T11:00:00Z,26.4679,-82.0631,1.978,20.07,1111122 
SCCF RECON,ioos:station:SCCF:11:1,2017-10-07T12:00:00Z,26.4679,-82.0631,1.89,22.22,1111122 
SCCF RECON,ioos:station:SCCF:11:1,2017-10-07T13:00:00Z,26.4679,-82.0631,1.81,21.83,1111122 
SCCF RECON,ioos:station:SCCF:11:1,2017-10-07T14:00:00Z,26.4679,-82.0631,1.898,21.79,1111122 
SCCF RECON,ioos:station:SCCF:11:1,2017-10-07T15:00:00Z,26.4679,-82.0631,2.139,22.46,1111122 
SCCF RECON,ioos:station:SCCF:11:1,2017-10-07T16:00:00Z,26.4679,-82.0631,2.297,22.92,1111122 
SCCF RECON,ioos:station:SCCF:11:1,2017-10-07T17:00:00Z,26.4679,-82.0631,2.409,24.28,1111122 
SCCF RECON,ioos:station:SCCF:11:1,2017-10-07T18:00:00Z,26.4679,-82.0631,2.509,28.93,1111122 
SCCF RECON,ioos:station:SCCF:11:1,2017-10-07T19:00:00Z,26.4679,-82.0631,2.58,30.47,1111122 
SCCF RECON,ioos:station:SCCF:11:1,2017-10-07T20:00:00Z,26.4679,-82.0631,2.567,30.73,1111122 
SCCF RECON,ioos:station:SCCF:11:1,2017-10-07T21:00:00Z,26.4679,-82.0631,2.499,31.06,1111122 
SCCF RECON,ioos:station:SCCF:11:1,2017-10-07T22:00:00Z,26.4679,-82.0631,2.4,31.4,1111122 
SCCF RECON,ioos:station:SCCF:11:1,2017-10-08T04:00:00Z,26.4679,-82.0631,2.425,30.67,1111122 
SCCF RECON,ioos:station:SCCF:11:1,2017-10-08T05:00:00Z,26.4679,-82.0631,2.47,29.05,1111122 
SCCF RECON,ioos:station:SCCF:11:1,2017-10-08T06:00:00Z,26.4679,-82.0631,2.51,29.68,1111122 
SCCF RECON,ioos:station:SCCF:11:1,2017-10-08T07:00:00Z,26.4679,-82.0631,2.53,30.49,1111122 
SCCF RECON,ioos:station:SCCF:11:1,2017-10-08T08:00:00Z,26.4679,-82.0631,2.48,30.77,1111122 
SCCF RECON,ioos:station:SCCF:11:1,2017-10-08T09:00:00Z,26.4679,-82.0631,2.339,28.68,1111122 
SCCF RECON,ioos:station:SCCF:11:1,2017-10-08T10:00:00Z,26.4679,-82.0631,2.159,23.8,1111122 
SCCF RECON,ioos:station:SCCF:11:1,2017-10-08T11:00:00Z,26.4679,-82.0631,2.02,22.5,1111122 
SCCF RECON,ioos:station:SCCF:11:1,2017-10-08T12:00:00Z,26.4679,-82.0631,1.89,22.34,1111122 
SCCF RECON,ioos:station:SCCF:11:1,2017-10-08T13:00:00Z,26.4679,-82.0631,1.755,22.32,1111122 
SCCF RECON,ioos:station:SCCF:11:1,2017-10-08T14:00:00Z,26.4679,-82.0631,1.701,23.42,1111122 
SCCF RECON,ioos:station:SCCF:11:1,2017-10-08T15:00:00Z,26.4679,-82.0631,1.783,27.59,1111122 
SCCF RECON,ioos:station:SCCF:11:1,2017-10-08T16:00:00Z,26.4679,-82.0631,1.987,26.1,1111122 
SCCF RECON,ioos:station:SCCF:11:1,2017-10-08T17:00:00Z,26.4679,-82.0631,2.18,24.94,1111122 
SCCF RECON,ioos:station:SCCF:11:1,2017-10-08T18:00:00Z,26.4679,-82.0631,2.29,27.07,1111122 
SCCF RECON,ioos:station:SCCF:11:1,2017-10-08T19:00:00Z,26.4679,-82.0631,2.36,27.77,1111122 
SCCF RECON,ioos:station:SCCF:11:1,2017-10-08T20:00:00Z,26.4679,-82.0631,2.391,29.59,1111122 
SCCF RECON,ioos:station:SCCF:11:1,2017-10-08T21:00:00Z,26.4679,-82.0631,2.373,31.05,1111122 
SCCF RECON,ioos:station:SCCF:11:1,2017-10-08T22:00:00Z,26.4679,-82.0631,2.3,31.55,1111122 
SCCF RECON,ioos:station:SCCF:11:1,2017-10-09T08:00:00Z,26.4679,-82.0631,2.48,30.66,1111122 
SCCF RECON,ioos:station:SCCF:11:1,2017-10-09T09:00:00Z,26.4679,-82.0631,2.4,30.35,1111122 
SCCF RECON,ioos:station:SCCF:11:1,2017-10-09T11:00:00Z,26.4679,-82.0631,2.093,26.0,1111122 
SCCF RECON,ioos:station:SCCF:11:1,2017-10-09T12:00:00Z,26.4679,-82.0631,1.931,25.59,1111122 
SCCF RECON,ioos:station:SCCF:11:1,2017-10-09T13:00:00Z,26.4679,-82.0631,1.798,25.33,1111122 
SCCF RECON,ioos:station:SCCF:11:1,2017-10-09T14:00:00Z,26.4679,-82.0631,1.674,25.42,1111122 
SCCF RECON,ioos:station:SCCF:11:1,2017-10-09T15:00:00Z,26.4679,-82.0631,1.639,25.5,1111122 
SCCF RECON,ioos:station:SCCF:11:1,2017-10-09T16:00:00Z,26.4679,-82.0631,1.722,26.49,1111122 
SCCF RECON,ioos:station:SCCF:11:1,2017-10-09T18:00:00Z,26.4679,-82.0631,2.049,22.05,1111122 
SCCF RECON,ioos:station:SCCF:11:1,2017-10-09T19:00:00Z,26.4679,-82.0631,2.143,23.24,1111122 
SCCF RECON,ioos:station:SCCF:11:1,2017-10-09T20:00:00Z,26.4679,-82.0631,2.221,23.84,1111122 
SCCF RECON,ioos:station:SCCF:11:1,2017-10-09T21:00:00Z,26.4679,-82.0631,2.248,24.71,1111122 
SCCF RECON,ioos:station:SCCF:11:1,2017-10-09T22:00:00Z,26.4679,-82.0631,2.236,25.46,1111122 
SCCF RECON,ioos:station:SCCF:11:1,2017-10-10T05:00:00Z,26.4679,-82.0631,2.22,24.63,1111122 
SCCF RECON,ioos:station:SCCF:11:1,2017-10-10T12:00:00Z,26.4679,-82.0631,2.011,23.96,1111122 
SCCF RECON,ioos:station:SCCF:11:1,2017-10-10T13:00:00Z,26.4679,-82.0631,1.882,24.59,1111122 
SCCF RECON,ioos:station:SCCF:11:1,2017-10-10T14:00:00Z,26.4679,-82.0631,1.748,24.65,1111122 
SCCF RECON,ioos:station:SCCF:11:1,2017-10-10T15:00:00Z,26.4679,-82.0631,1.645,24.76,1111122 
SCCF RECON,ioos:station:SCCF:11:1,2017-10-10T16:00:00Z,26.4679,-82.0631,1.61,24.25,1111122 
SCCF RECON,ioos:station:SCCF:11:1,2017-10-10T17:00:00Z,26.4679,-82.0631,1.683,24.04,1111122 
SCCF RECON,ioos:station:SCCF:11:1,2017-10-10T18:00:00Z,26.4679,-82.0631,1.823,19.25,1111122 
SCCF RECON,ioos:station:SCCF:11:1,2017-10-10T19:00:00Z,26.4679,-82.0631,1.97,16.98,1111122 
SCCF RECON,ioos:station:SCCF:11:1,2017-10-10T20:00:00Z,26.4679,-82.0631,2.07,17.91,1111122 
SCCF RECON,ioos:station:SCCF:11:1,2017-10-10T21:00:00Z,26.4679,-82.0631,2.113,20.01,1111122 
SCCF RECON,ioos:station:SCCF:11:1,2017-10-10T22:00:00Z,26.4679,-82.0631,2.17,22.13,1111122 
SCCF RECON,ioos:station:SCCF:11:1,2017-10-11T12:00:00Z,26.4679,-82.0631,2.096,22.2,1111122 
SCCF RECON,ioos:station:SCCF:11:1,2017-10-11T13:00:00Z,26.4679,-82.0631,1.952,22.25,1111122 
SCCF RECON,ioos:station:SCCF:11:1,2017-10-11T14:00:00Z,26.4679,-82.0631,1.838,22.88,1111122 
SCCF RECON,ioos:station:SCCF:11:1,2017-10-11T15:00:00Z,26.4679,-82.0631,1.722,23.06,1111122 
SCCF RECON,ioos:station:SCCF:11:1,2017-10-11T16:00:00Z,26.4679,-82.0631,1.607,23.11,1111122 
SCCF RECON,ioos:station:SCCF:11:1,2017-10-11T17:00:00Z,26.4679,-82.0631,1.548,22.04,1111122 
SCCF RECON,ioos:station:SCCF:11:1,2017-10-11T18:00:00Z,26.4679,-82.0631,1.607,21.59,1111122 
SCCF RECON,ioos:station:SCCF:11:1,2017-10-11T19:00:00Z,26.4679,-82.0631,1.738,20.8,1111122 
SCCF RECON,ioos:station:SCCF:11:1,2017-10-11T20:00:00Z,26.4679,-82.0631,1.847,15.28,1111122 
SCCF RECON,ioos:station:SCCF:11:1,2017-10-11T21:00:00Z,26.4679,-82.0631,1.941,14.85,1111122 
SCCF RECON,ioos:station:SCCF:11:1,2017-10-11T22:00:00Z,26.4679,-82.0631,2.015,14.38,1111122 
SCCF RECON,ioos:station:SCCF:11:1,2017-10-12T04:00:00Z,26.4679,-82.0631,2.04,21.01,1111122 
SCCF RECON,ioos:station:SCCF:11:1,2017-10-12T06:00:00Z,26.4679,-82.0631,2.03,21.9,1111122 
SCCF RECON,ioos:station:SCCF:11:1,2017-10-12T08:00:00Z,26.4679,-82.0631,2.16,20.9,1111122 
SCCF RECON,ioos:station:SCCF:11:1,2017-10-12T12:00:00Z,26.4679,-82.0631,2.261,20.93,1111122 
SCCF RECON,ioos:station:SCCF:11:1,2017-10-12T13:00:00Z,26.4679,-82.0631,2.15,20.42,1111122 
SCCF RECON,ioos:station:SCCF:11:1,2017-10-12T14:00:00Z,26.4679,-82.0631,2.023,19.46,1111122 
SCCF RECON,ioos:station:SCCF:11:1,2017-10-12T15:00:00Z,26.4679,-82.0631,1.881,20.3,1111122 
SCCF RECON,ioos:station:SCCF:11:1,2017-10-12T16:00:00Z,26.4679,-82.0631,1.756,20.73,1111122 
SCCF RECON,ioos:station:SCCF:11:1,2017-10-12T17:00:00Z,26.4679,-82.0631,1.657,19.54,1111122 
SCCF RECON,ioos:station:SCCF:11:1,2017-10-12T18:00:00Z,26.4679,-82.0631,1.6,19.34,1111122 
SCCF RECON,ioos:station:SCCF:11:1,2017-10-12T19:00:00Z,26.4679,-82.0631,1.612,18.97,1111122 
SCCF RECON,ioos:station:SCCF:11:1,2017-10-12T20:00:00Z,26.4679,-82.0631,1.713,19.38,1111122 
SCCF RECON,ioos:station:SCCF:11:1,2017-10-12T21:00:00Z,26.4679,-82.0631,1.84,18.14,1111122 
SCCF RECON,ioos:station:SCCF:11:1,2017-10-12T22:00:00Z,26.4679,-82.0631,1.93,16.21,1111122 
SCCF RECON,ioos:station:SCCF:11:1,2017-10-13T04:00:00Z,26.4679,-82.0631,1.99,18.04,1111122 
SCCF RECON,ioos:station:SCCF:11:1,2017-10-13T05:00:00Z,26.4679,-82.0631,1.96,18.47,1111122 
SCCF RECON,ioos:station:SCCF:11:1,2017-10-13T06:00:00Z,26.4679,-82.0631,1.93,18.48,1111122 
SCCF RECON,ioos:station:SCCF:11:1,2017-10-13T07:00:00Z,26.4679,-82.0631,1.946,19.18,1111122 
SCCF RECON,ioos:station:SCCF:11:1,2017-10-13T08:00:00Z,26.4679,-82.0631,1.99,18.32,1111122 
SCCF RECON,ioos:station:SCCF:11:1,2017-10-13T09:00:00Z,26.4679,-82.0631,2.07,19.13,1111122 
SCCF RECON,ioos:station:SCCF:11:1,2017-10-13T10:00:00Z,26.4679,-82.0631,2.129,17.06,1111122 
SCCF RECON,ioos:station:SCCF:11:1,2017-10-13T11:00:00Z,26.4679,-82.0631,2.188,16.67,1111122 
SCCF RECON,ioos:station:SCCF:11:1,2017-10-13T12:00:00Z,26.4679,-82.0631,2.21,15.66,1111122 
SCCF RECON,ioos:station:SCCF:11:1,2017-10-13T13:00:00Z,26.4679,-82.0631,2.2,19.0,1111122 
SCCF RECON,ioos:station:SCCF:11:1,2017-10-13T14:00:00Z,26.4679,-82.0631,2.131,18.73,1111122 
SCCF RECON,ioos:station:SCCF:11:1,2017-10-13T15:00:00Z,26.4679,-82.0631,2.03,17.54,1111122 
SCCF RECON,ioos:station:SCCF:11:1,2017-10-13T16:00:00Z,26.4679,-82.0631,1.891,17.72,1111122 
SCCF RECON,ioos:station:SCCF:11:1,2017-10-13T17:00:00Z,26.4679,-82.0631,1.76,18.88,1111122 
SCCF RECON,ioos:station:SCCF:11:1,2017-10-13T18:00:00Z,26.4679,-82.0631,1.653,19.0,1111122 
SCCF RECON,ioos:station:SCCF:11:1,2017-10-13T19:00:00Z,26.4679,-82.0631,1.611,17.67,1111122 
SCCF RECON,ioos:station:SCCF:11:1,2017-10-13T20:00:00Z,26.4679,-82.0631,1.67,17.52,1111122 
SCCF RECON,ioos:station:SCCF:11:1,2017-10-13T21:00:00Z,26.4679,-82.0631,1.761,16.6,1111122 
SCCF RECON,ioos:station:SCCF:11:1,2017-10-13T22:00:00Z,26.4679,-82.0631,1.897,13.78,1111122 
SCCF RECON,ioos:station:SCCF:11:1,2017-10-14T04:00:00Z,26.4679,-82.0631,2.18,21.85,1111122 
SCCF RECON,ioos:station:SCCF:11:1,2017-10-14T05:00:00Z,26.4679,-82.0631,2.129,22.82,1111122 
SCCF RECON,ioos:station:SCCF:11:1,2017-10-14T06:00:00Z,26.4679,-82.0631,2.05,20.23,1111122 
SCCF RECON,ioos:station:SCCF:11:1,2017-10-14T07:00:00Z,26.4679,-82.0631,1.962,20.21,1111122 
SCCF RECON,ioos:station:SCCF:11:1,2017-10-14T09:00:00Z,26.4679,-82.0631,2.03,19.56,1111122 
SCCF RECON,ioos:station:SCCF:11:1,2017-10-14T10:00:00Z,26.4679,-82.0631,2.12,20.51,1111122 
SCCF RECON,ioos:station:SCCF:11:1,2017-10-14T11:00:00Z,26.4679,-82.0631,2.19,22.53,1111122 
SCCF RECON,ioos:station:SCCF:11:1,2017-10-14T12:00:00Z,26.4679,-82.0631,2.25,23.38,1111122 
SCCF RECON,ioos:station:SCCF:11:1,2017-10-14T13:00:00Z,26.4679,-82.0631,2.29,24.71,1111122 
SCCF RECON,ioos:station:SCCF:11:1,2017-10-14T14:00:00Z,26.4679,-82.0631,2.302,24.71,1111122 
SCCF RECON,ioos:station:SCCF:11:1,2017-10-14T15:00:00Z,26.4679,-82.0631,2.257,25.75,1111122 
SCCF RECON,ioos:station:SCCF:11:1,2017-10-14T16:00:00Z,26.4679,-82.0631,2.145,21.74,1111122 
SCCF RECON,ioos:station:SCCF:11:1,2017-10-14T17:00:00Z,26.4679,-82.0631,1.99,19.4,1111122 
SCCF RECON,ioos:station:SCCF:11:1,2017-10-14T18:00:00Z,26.4679,-82.0631,1.843,19.46,1111122 
SCCF RECON,ioos:station:SCCF:11:1,2017-10-14T19:00:00Z,26.4679,-82.0631,1.735,19.45,1111122 
SCCF RECON,ioos:station:SCCF:11:1,2017-10-14T20:00:00Z,26.4679,-82.0631,1.669,19.44,1111122 
SCCF RECON,ioos:station:SCCF:11:1,2017-10-14T21:00:00Z,26.4679,-82.0631,1.659,19.27,1111122 
SCCF RECON,ioos:station:SCCF:11:1,2017-10-14T22:00:00Z,26.4679,-82.0631,1.762,20.0,1111122 
SCCF RECON,ioos:station:SCCF:11:1,2017-10-15T04:00:00Z,26.4679,-82.0631,2.18,21.82,1111122 
SCCF RECON,ioos:station:SCCF:11:1,2017-10-15T05:00:00Z,26.4679,-82.0631,2.15,23.05,1111122 
SCCF RECON,ioos:station:SCCF:11:1,2017-10-15T07:00:00Z,26.4679,-82.0631,1.976,18.88,1111122 
SCCF RECON,ioos:station:SCCF:11:1,2017-10-15T09:00:00Z,26.4679,-82.0631,1.9,20.31,1111122 
SCCF RECON,ioos:station:SCCF:11:1,2017-10-15T10:00:00Z,26.4679,-82.0631,1.963,20.88,1111122 
SCCF RECON,ioos:station:SCCF:11:1,2017-10-15T11:00:00Z,26.4679,-82.0631,2.09,19.63,1111122 
SCCF RECON,ioos:station:SCCF:11:1,2017-10-15T12:00:00Z,26.4679,-82.0631,2.21,19.88,1111122 
SCCF RECON,ioos:station:SCCF:11:1,2017-10-15T13:00:00Z,26.4679,-82.0631,2.28,21.73,1111122 
SCCF RECON,ioos:station:SCCF:11:1,2017-10-15T14:00:00Z,26.4679,-82.0631,2.34,24.41,1111122 
SCCF RECON,ioos:station:SCCF:11:1,2017-10-15T15:00:00Z,26.4679,-82.0631,2.351,23.91,1111122 
SCCF RECON,ioos:station:SCCF:11:1,2017-10-15T16:00:00Z,26.4679,-82.0631,2.31,25.57,1111122 
SCCF RECON,ioos:station:SCCF:11:1,2017-10-15T17:00:00Z,26.4679,-82.0631,2.196,20.29,1111122 
SCCF RECON,ioos:station:SCCF:11:1,2017-10-15T18:00:00Z,26.4679,-82.0631,2.057,19.19,1111122 
SCCF RECON,ioos:station:SCCF:11:1,2017-10-15T19:00:00Z,26.4679,-82.0631,1.931,19.13,1111122 
SCCF RECON,ioos:station:SCCF:11:1,2017-10-15T20:00:00Z,26.4679,-82.0631,1.825,19.11,1111122 
SCCF RECON,ioos:station:SCCF:11:1,2017-10-15T21:00:00Z,26.4679,-82.0631,1.75,18.93,1111122 
SCCF RECON,ioos:station:SCCF:11:1,2017-10-15T22:00:00Z,26.4679,-82.0631,1.775,18.69,1111122 
SCCF RECON,ioos:station:SCCF:11:1,2017-10-16T04:00:00Z,26.4679,-82.0631,2.31,19.88,1111122 
SCCF RECON,ioos:station:SCCF:11:1,2017-10-16T05:00:00Z,26.4679,-82.0631,2.22,20.3,1111122 
SCCF RECON,ioos:station:SCCF:11:1,2017-10-16T08:00:00Z,26.4679,-82.0631,1.936,19.0,1111122 
SCCF RECON,ioos:station:SCCF:11:1,2017-10-16T09:00:00Z,26.4679,-82.0631,1.866,19.03,1111122 
SCCF RECON,ioos:station:SCCF:11:1,2017-10-16T10:00:00Z,26.4679,-82.0631,1.867,19.17,1111122 
SCCF RECON,ioos:station:SCCF:11:1,2017-10-16T12:00:00Z,26.4679,-82.0631,2.099,20.28,1111122 
SCCF RECON,ioos:station:SCCF:11:1,2017-10-16T13:00:00Z,26.4679,-82.0631,2.21,21.58,1111122 
SCCF RECON,ioos:station:SCCF:11:1,2017-10-16T14:00:00Z,26.4679,-82.0631,2.27,22.15,1111122 
SCCF RECON,ioos:station:SCCF:11:1,2017-10-16T15:00:00Z,26.4679,-82.0631,2.324,23.41,1111122 
SCCF RECON,ioos:station:SCCF:11:1,2017-10-16T16:00:00Z,26.4679,-82.0631,2.34,24.23,1111122 
SCCF RECON,ioos:station:SCCF:11:1,2017-10-16T17:00:00Z,26.4679,-82.0631,2.3,25.19,1111122 
SCCF RECON,ioos:station:SCCF:11:1,2017-10-16T18:00:00Z,26.4679,-82.0631,2.18,21.51,1111122 
SCCF RECON,ioos:station:SCCF:11:1,2017-10-16T19:00:00Z,26.4679,-82.0631,2.022,19.37,1111122 
SCCF RECON,ioos:station:SCCF:11:1,2017-10-16T20:00:00Z,26.4679,-82.0631,1.894,19.18,1111122 
SCCF RECON,ioos:station:SCCF:11:1,2017-10-16T21:00:00Z,26.4679,-82.0631,1.791,19.07,1111122 
SCCF RECON,ioos:station:SCCF:11:1,2017-10-16T22:00:00Z,26.4679,-82.0631,1.72,19.02,1111122 
SCCF RECON,ioos:station:SCCF:11:1,2017-10-17T05:00:00Z,26.4679,-82.0631,2.31,24.03,1111122 
SCCF RECON,ioos:station:SCCF:11:1,2017-10-17T09:00:00Z,26.4679,-82.0631,1.85,19.51,1111122 